This is the latest recevied weather packets stored in our database for station/object W7TJC. If no packets are shown the sender has not sent any weather packets the latest 10 day(s).
| Time | Temp. | Humidity | Pressure | Rain* | Wind** | Luminosity | Snow |
|---|---|---|---|---|---|---|---|
| 1777605506 | 17.78° C | 65% | 1017.2 hPa | 0 mm | - | 0 W/m² | - |
| 1777605203 | 18.33° C | 64% | 1017.1 hPa | 0 mm | - | 0 W/m² | - |
| 1777604899 | 18.33° C | 63% | 1017 hPa | 0 mm | - | 0 W/m² | - |
| 1777604595 | 18.33° C | 63% | 1017 hPa | 0 mm | - | 1 W/m² | - |
| 1777604291 | 18.33° C | 64% | 1017.1 hPa | 0 mm | - | 1 W/m² | - |
| 1777603986 | 18.33° C | 64% | 1016.9 hPa | 0 mm | - | 1 W/m² | - |
| 1777603683 | 18.33° C | 63% | 1016.8 hPa | 0 mm | - | 2 W/m² | - |
| 1777603380 | 18.89° C | 62% | 1017 hPa | 0 mm | - | 3 W/m² | - |
| 1777603075 | 18.89° C | 62% | 1017 hPa | 0 mm | - | 3 W/m² | - |
| 1777602770 | 18.89° C | 62% | 1017.2 hPa | 0 mm | - | 3 W/m² | - |
| 1777602466 | 18.89° C | 61% | 1017.1 hPa | 0 mm | - | 4 W/m² | - |
| 1777602162 | 18.89° C | 61% | 1017.1 hPa | 0 mm | - | 4 W/m² | - |
| 1777601857 | 18.89° C | 60% | 1017.2 hPa | 0 mm | - | 4 W/m² | - |
| 1777601553 | 18.89° C | 60% | 1017.3 hPa | 0 mm | - | 6 W/m² | - |
| 1777601248 | 19.44° C | 59% | 1017.2 hPa | 0 mm | - | 6 W/m² | - |
| 1777600946 | 19.44° C | 59% | 1017.4 hPa | 0 mm | - | 6 W/m² | - |
| 1777600641 | 20° C | 58% | 1017.2 hPa | 0 mm | - | 8 W/m² | - |
| 1777600338 | 20° C | 57% | 1017.3 hPa | 0 mm | - | 8 W/m² | - |
| 1777600034 | 20° C | 58% | 1017.3 hPa | 0 mm | - | 9 W/m² | - |
| 1777599730 | 20.56° C | 57% | 1017.2 hPa | 0 mm | - | 10 W/m² | - |
| 1777599425 | 20.56° C | 56% | 1017.5 hPa | 0 mm | - | 15 W/m² | - |
| 1777599123 | 20.56° C | 55% | 1017.4 hPa | 0 mm | - | 11 W/m² | - |
| 1777598822 | 21.11° C | 55% | 1017.3 hPa | 0 mm | - | 11 W/m² | - |
| 1777598516 | 21.11° C | 56% | 1017.3 hPa | 0 mm | - | 14 W/m² | - |
| 1777598216 | 21.11° C | 55% | 1017.2 hPa | 0 mm | - | 12 W/m² | - |
* Rain latest hour (hover to see other rain measurements)
** Current wind speed in m/s (hover to see current wind gust speed)